User: anonymous   Login
Location: Csohesd
(46.2500°N, 22.6167°E)
Time: 00:59:46
(UTC+00:00)
Language:

FENGYUN 1C DEB - Orbit

View from above orbital plane
View from above orbital plane
View from above satellite
View from above satellite

Ground track
Ground track

The orbit data is extracted from the following two-line orbital elements,

1 31163U 99025BHR 22220.71974617  .00000711  00000-0  30845-3 0  9991
2 31163  99.0335  28.8145 0058298 191.6997 168.2831 14.26591765472870
Epoch (UTC): 08 August 2022 17:16:26
Eccentricity: 0.0058298
inclination: 99.0335°
perigee height: 761 km
apogee height: 845 km
right ascension of ascending node: 28.8145°
argument of perigee: 191.6997°
revolutions per day: 14.26591765
mean anomaly at epoch: 168.2831°
orbit number at epoch: 47287

The dashed part of the orbit path shows where the satellite is in the earth's shadow,  

DLR